User: anonymous   Login
Location: Unspecified
(0.0000°N, 0.0000°E)
Time: 19:32:10
(UTC+02:00)
Language:

Cosmos 1703 - Orbit

View from above orbital plane
View from above orbital plane
View from above satellite
View from above satellite

Ground track
Ground track

The orbit data is extracted from the following two-line orbital elements,

1 16262U 85108A   15088.49974888  .00004809  00000-0  31124-3 0  9993
2 16262 082.4918 324.6682 0011318 193.4260 166.6669 15.07907065596607
Epoch (UTC): 29 March 2015 11:59:38
Eccentricity: 0.0011318
inclination: 82.4918°
perigee height: 535 km
apogee height: 550 km
right ascension of ascending node: 324.6682°
argument of perigee: 193.4260°
revolutions per day: 15.07907065
mean anomaly at epoch: 166.6669°
orbit number at epoch: 59660

The dashed part of the orbit path shows where the satellite is in the earth's shadow,  

DLR